Skip Page Navigation
NASA JPL Caltech
NASA Logo - Jet Propulsion Laboratory + View the NASA Portal
+ Near-Earth Object (NEO) Program
Search JPL
JPL Home Earth Solar System Stars & Galaxies Technology
JPL Solar System Dynamics
BODIES ORBITS EPHEMERIDES TOOLS PHYSICAL DATA DISCOVERY FAQ SITE MAP
JPL Small-Body Database Browser
Search: [ help ]  
7294 (1992 LM)
Classification: Main-belt Asteroid          SPK-ID: 2007294
Ephemeris | Orbit Diagram | Orbital Elements | Physical Parameters | Discovery Circumstances ]

[ show orbit diagram ]
Orbital Elements at Epoch 2457000.5 (2014-Dec-09.0) TDB
Reference: JPL 3 (heliocentric ecliptic J2000)
 Element Value Uncertainty (1-sigma)   Units 
e .09005980158130239 6.5949e-08  
a 2.659998570285428 2.4136e-08 AU
q 2.420439626838975 1.7941e-07 AU
i 6.708526717623631 6.8269e-06 deg
node 74.15674925967457 6.2231e-05 deg
peri 72.62371142134408 7.5274e-05 deg
M 154.4788926657688 4.1145e-05 deg
tp 2456320.534029520496
(2013-Jan-28.03402952)
0.00018109 JED
period 1584.603211147074
4.34
2.1567e-05
5.905e-08
d
yr
n .2271862113288289 3.0921e-09 deg/d
Q 2.899557513731882 2.6309e-08 AU
  Orbit Determination Parameters
   # obs. used (total)      952  
   data-arc span      8693 days (23.80 yr)  
   first obs. used      1989-09-02  
   last obs. used      2013-06-21  
   planetary ephem.      DE431  
   SB-pert. ephem.      SB431-BIG16  
   condition code      0  
   fit RMS      .50311  
   data source      ORB  
   producer      Otto Matic  
   solution date      2014-Jun-09 18:56:41  

Additional Information
 Earth MOID = 1.4433 AU 
 T_jup = 3.371 
[ show covariance matrix ]

Ephemeris | Orbit Diagram | Orbital Elements | Physical Parameters | Discovery Circumstances ]

Physical Parameter Table
Parameter Symbol Value Units Sigma Reference Notes
absolute magnitude H 12.8 mag n/a PDS3 (MPC 28287)  

7294 (1992 LM)          Discovered 1992-Jun-03 by Leonard, G. J. at Palomar (675)
Reference: DISCOVERY.DBLast Updated: 2003-08-29
Ephemeris | Orbit Diagram | Orbital Elements | Physical Parameters | Discovery Circumstances ]
ABOUT SSD CREDITS/AWARDS PRIVACY/COPYRIGHT GLOSSARY LINKS
FirstGov 2014-Oct-02 14:30 UT
(server date/time)  
NASA Home Page
Site Manager:   Donald K. Yeomans
Webmaster  Alan B. Chamberlin